Regional Weather Roundup
Issued by NWS San Angelo, TX

Home | Current Version | Previous Version | Text Only | Print | Product List | Glossary On
Versions: 1 2 3 4 5 6 7 8 9 10 11 12 13 14 15 16 17 18 19 20 21 22 23 24 25 26 27 28 29 30 31 32 33 34 35 36 37 38 39 40 41 42 43 44 45 46 47 48 49 50
000
ASUS44 KSJT 230310
RWRSJT
WEST CENTRAL TEXAS REGIONAL WEATHER ROUNDUP
NATIONAL WEATHER SERVICE SAN ANGELO TX
1000 PM CDT MON SEP 22 2014

NOTE: "FAIR" INDICATES FEW OR NO CLOUDS BELOW 12,000 FEET WITH NO
SIGNIFICANT WEATHER AND/OR OBSTRUCTIONS TO VISIBILITY.

TXZ049-054-064>066-071>073-076>078-098-099-113-114-127-128-139-140-
154-155-168>170-230400
...LOCATIONS ACROSS WEST CENTRAL TEXAS...

CITY           SKY/WX    TMP DP  RH WIND       PRES   REMARKS
SAN ANGELO     PTCLDY    74  67  78 E6        30.15R
ABILENE        PTCLDY    78  61  55 E8        30.18R
DYESS AFB      MOCLDY    78  57  49 E6        30.16R
JUNCTION       PTCLDY    77  61  57 E3        30.14R
SWEETWATER     CLOUDY    75  65  72 NE5       30.23R
BROWNWOOD      MOCLDY    75  66  73 E6        30.15R
COLEMAN        NOT AVBL
SONORA         PTCLDY    79  59  50 E6        30.20R
OZONA          FAIR      79  55  44 E7        30.19R
BRADY          CLEAR     75  64  69 E6        30.16R
$$

TEXAS PANHANDLE/OKLAHOMA PANHANDLE

CITY           SKY/WX    TMP DP  RH WIND       PRES   REMARKS
AMARILLO       PTCLDY    66  58  75 S16       30.21F
BORGER         CLOUDY    72  55  55 S10G20    30.17F
CANADIAN       PTCLDY    71  55  57 S10       30.18S
DALHART        PTCLDY    66  60  81 S9        30.23R
DUMAS          MOCLDY    67  59  73 S10       30.21R
GUYMON         NOT AVBL
HEREFORD       MOCLDY    67  65  92 S13       30.24F
PAMPA          PTCLDY    67  51  56 S13       30.21F
PERRYTON       MOCLDY    71  52  50 S14       30.18R
$$

SOUTHERN PANHANDLE/SOUTH PLAINS/ROLLING PLAINS

CITY           SKY/WX    TMP DP  RH WIND       PRES   REMARKS
LUBBOCK        MOCLDY    67  61  81 E9        30.24R
SNYDER         MOCLDY    71  65  79 NE6       30.21R
CHILDRESS      MOCLDY    72  52  49 SE8       30.20R
SEMINOLE       PTCLDY    68  66  93 E6        30.24R
$$

PERMIAN BASIN

CITY           SKY/WX    TMP DP  RH WIND       PRES   REMARKS
MIDLAND        PTCLDY    73  61  65 E7        30.19R
ODESSA           N/A     72  62  71 E6        30.20R
WINK           CLOUDY    74  63  68 E5        30.17R
$$

FAR WEST/SOUTHWEST MOUNTAINS/TRANS PECOS

CITY           SKY/WX    TMP DP  RH WIND       PRES   REMARKS
ALPINE         CLOUDY    66  50  54 S6        30.32R
DRYDEN           N/A     78  57  48 CALM      30.14R
EL PASO        CLOUDY    70  65  84 SE6       30.19R
FORT STOCKTON  MOCLDY    72  56  57 S7        30.19R
GUADALUPE PASS LGT RAIN  61  60  97 NE26        N/A
MARFA          CLOUDY    64  55  72 E6        30.30R
PECOS          CLOUDY    70  63  77 SE5       30.17R
$$

DALLAS/FORT WORTH METROPLEX

CITY           SKY/WX    TMP DP  RH WIND       PRES   REMARKS
DFW AIRPORT    PTCLDY    74  50  42 NE8       30.15R
FTW MEACHAM    CLEAR     76  52  43 NE9       30.14R
DAL-EXECUTIVE  CLEAR     75  51  43 NE7       30.15R
GRAND PRAIRIE  CLEAR     76  49  39 NE8       30.16R
ADDISON        NOT AVBL
MESQUITE       CLEAR     69  50  50 CALM      30.16
LANCASTER      CLEAR     70  49  48 NE6       30.16R
$$

NORTH CENTRAL TEXAS

CITY           SKY/WX    TMP DP  RH WIND       PRES   REMARKS
SHRMAN/DENISON CLEAR     67  55  64 CALM      30.19R
GAINESVILLE    PTCLDY    67  53  61 E5        30.19S
BRIDGEPORT     CLEAR     69  49  49 E3        30.18R
DENTON         PTCLDY    72  52  49 E8        30.16R
WAXAHACHIE     CLEAR     73  47  40 NE7       30.16R
GRANBURY       CLEAR     75  49  39 NE5       30.15S
$$

WESTERN NORTH TEXAS

CITY           SKY/WX    TMP DP  RH WIND       PRES   REMARKS
WICHITA FALLS  PTCLDY    71  53  52 E5        30.16R
VERNON         MOCLDY    72  52  48 E6        30.18S
BRECKENRIDGE   PTCLDY    78  47  33 E7        30.16R
COMANCHE       CLEAR     74  58  58 E3        30.16R
$$

CENTRAL AND SOUTH CENTRAL TEXAS

CITY           SKY/WX    TMP DP  RH WIND       PRES   REMARKS
AUSTIN/BERGSTM PTCLDY    79  70  74 CALM      30.09R
WACO           PTCLDY    73  53  49 NE6       30.12R
HILLSBORO      CLEAR     73  48  41 NE6       30.14R
TEMPLE         PTCLDY    75  57  53 NE7       30.12R
KILLEEN-GRAY   PTCLDY    81  59  47 NE10      30.12R
FORT HOOD      MOCLDY    80  59  48 NE8       30.13R
GEORGETOWN     CLEAR     79  63  57 NE7       30.11R
LAGO VISTA     FAIR      79  67  67 NE7       30.13R
SAN MARCOS     CLEAR     79  66  65 NE5       30.10R
NEW BRAUNFELS  PTCLDY    80  69  69 NE8       30.08R
RANDOLPH AFB   CLEAR     80  68  68 NE3       30.10R
SAN ANTONIO    CLEAR     83  68  60 E8        30.09R
STINSON        CLEAR     84  67  56 E7        30.07R
PLEASANTON     NOT AVBL
LA GRANGE      CLEAR     80  73  80 CALM      30.07R
GIDDINGS       CLEAR     77  67  70 NE3       30.13R
$$

EAST TEXAS

CITY           SKY/WX    TMP DP  RH WIND       PRES   REMARKS
PARIS          CLEAR     66  52  59 E6        30.18R
CLARKSVILLE    NOT AVBL
TYLER          CLEAR     69  55  60 NE6       30.14R
LONGVIEW       CLEAR     71  52  50 NE7       30.14R
PALESTINE      CLEAR     71  55  55 N6        30.14R
NACOGDOCHES    CLEAR     72  52  49 NE6       30.12S
$$

TEXAS HILL COUNTRY AND EDWARDS PLATEAU

CITY           SKY/WX    TMP DP  RH WIND       PRES   REMARKS
LLANO          CLEAR     79  66  65 E3        30.16R
HORSESHOE BAY  FAIR      73  73 100 CALM      30.12R
KERRVILLE      PTCLDY    78  67  68 NE8       30.15R
FREDERICKSBRG  CLOUDY    74  66  75 S6        30.16R
ROCKSPRINGS    CLEAR     75  61  60 CALM      30.19R
HONDO          CLEAR     80  62  54 E6        30.10R
UVALDE         CLEAR     79  64  59 E5        30.09R
DEL RIO        PTCLDY    80  65  59 CALM      30.07R
$$

SOUTHEAST TEXAS

CITY           SKY/WX    TMP DP  RH WIND       PRES   REMARKS
COLLEGE STN    CLEAR     78  63  59 NE8       30.09R
CALDWELL       CLEAR     75  66  73 NE5       30.12R
CROCKETT       CLEAR     72  61  68 NE6       30.14R
BRENHAM        PTCLDY    78  68  72 NE5       30.10R
HUNTSVILLE     CLEAR     74  62  66 CALM      30.10R
CONROE         CLEAR     70  67  90 CALM      30.09R
HOUSTON BUSH   PTCLDY    78  65  63 NE5       30.07R
HOUSTON HOBBY  PTCLDY    79  65  62 NE6       30.06R
PERLAND        CLEAR     80  67  64 NE8       30.07R
WHARTON        PTCLDY    77  73  86 NE3       30.07R
$$

THE UPPER TEXAS COAST

CITY           SKY/WX    TMP DP  RH WIND       PRES   REMARKS
ORANGE         CLEAR     73  61  65 NE7       30.08R
PORT ARTHUR    CLEAR     77  63  61 NE10      30.06R
GALVESTON      CLEAR     80  71  74 NE13      30.06R
ANGLETON       PTCLDY    75  74  96 N5        30.05R
BAY CITY       MOCLDY   N/A N/A N/A CALM      30.05R HAZE
$$

TEXAS COASTAL BEND, RIO GRANDE PLAINS DEEP SOUTH TEXAS

CITY           SKY/WX    TMP DP  RH WIND       PRES   REMARKS
VICTORIA       MOCLDY    78  73  84 SW3       30.06R
BEEVILLE       MOCLDY    80  67  64 SE5       30.05R
ROCKPORT       CLEAR     82  73  74 SE5       30.03R
PORT ARANSAS   CLEAR     82  72  71 E8        30.03R
PORT LAVACA    NOT AVBL
CORPUS CHRISTI PTCLDY    77  73  87 E6        30.03R
KINGSVILLE NAS PTCLDY    73  71  93 E5        30.04R
COTULLA        PTCLDY    84  65  52 S8        30.06R
LAREDO         CLEAR     82  64  54 SE6       30.08R
BROWNSVILLE    PTCLDY    79  74  84 NE5       30.02R
PORT ISABEL    NOT AVBL
HEBBRONVILLE   CLEAR     76  64  66 E3        30.08R
MCALLEN        CLEAR     80  72  76 NE6       30.04R
WESLACO        CLEAR     77  72  84 CALM      30.03R
FALFURRIAS     CLEAR    N/A N/A N/A CALM      30.04R
EDINBURG       CLEAR     78  72  81 CALM      30.04R
$$


USA.gov is the U.S. government's official web portal to all federal, state and local government web resources and services.